Weather Roundup
Issued by NWS Chicago, IL

Home | Current Version | Previous Version | Graphics & Text | Print | Product List | Glossary On
Versions: 1 2 3 4 5 6 7 8 9 10 11 12 13 14 15 16 17 18 19 20 21 22 23 24 25 26 27 28 29 30 31 32 33 34 35 36 37 38 39 40 41 42 43 44 45 46 47 48 49 50
000
NZUS59 KLOT 241808
HRRLOT

CHICAGO AREA WEATHER ROUNDUP
NATIONAL WEATHER SERVICE CHICAGO/ROMEOVILLE IL
1200 PM CST FRI NOV 24 2017

NOTE: "FAIR" INDICATES FEW OR NO CLOUDS BELOW 12,000 FEET WITH NO
SIGNIFICANT WEATHER AND/OR OBSTRUCTIONS TO VISIBILITY.

* THESE STATIONS ARE NOT UNDER NWS QUALITY CONTROL. THEY ALSO MAY NOT
  REPORT WEATHER SUCH AS PRECIPITATION OR FOG.

ILZ005-006-012>014-019>023-241900-
NORTHEAST ILLINOIS

CITY           SKY/WX    TMP DP  RH WIND       PRES   REMARKS
OHARE          MOSUNNY   57  34  41 S18G30    29.59F
6HR MIN TEMP:  35; 6HR MAX TEMP:  57;

MIDWAY         MOSUNNY   56  35  45 S14G26    29.61F
6HR MIN TEMP:  37; 6HR MAX TEMP:  56;

AURORA         SUNNY     58  39  49 S18G26    29.60F
6HR MIN TEMP:  31; 6HR MAX TEMP:  58;

LANSING*       SUNNY     55  39  54 S21       29.65F
JOLIET*        SUNNY     58  38  46 S15G24    29.63F
WAUKEGAN       SUNNY     59  36  42 S21       29.54F
6HR MIN TEMP:  38; 6HR MAX TEMP:  59;

DUPAGE AIRPORT SUNNY     56  38  50 S16G25    29.58F
6HR MIN TEMP:  33; 6HR MAX TEMP:  56;

WHEELING       SUNNY     58  35  42 S16G26    29.59F
6HR MIN TEMP:  37; 6HR MAX TEMP:  58;

KANKAKEE*      SUNNY     55  36  49 S17G24    29.68F
MORRIS*        SUNNY     59  38  46 S17       29.61F
LEWIS AIRPORT* SUNNY     56  38  51 S16G23    29.62F
NORTHERLY ISL    N/A     55  32  41 S13         N/A
$$

WIZ051-052-058>065-066-070>072-241900-
SOUTHEAST WISCONSIN

CITY           SKY/WX    TMP DP  RH WIND       PRES   REMARKS
MILWAUKEE      MOSUNNY   63  37  38 SW20G33   29.50F
6HR MIN TEMP:  42; 6HR MAX TEMP:  63;

KENOSHA*       SUNNY     60  35  39 SW17G33   29.53F
RACINE*        SUNNY     61  36  39 S18G31    29.53F
BURLINGTON     SUNNY     63  43  48 S21G26    29.50F
WAUKESHA       SUNNY     57  36  44 SW17G25   29.50F
WEST BEND      SUNNY     61  34  36 SW17G33   29.43F
$$

INZ001>003-010>013-019-020-241900-
NORTHWEST INDIANA

CITY           SKY/WX    TMP DP  RH WIND       PRES   REMARKS
GARY*          SUNNY     57  30  35 S14G30    29.65F
MICHIGAN CITY* NOT AVBL
RENSSELAER*    NOT AVBL
VALPARAISO     SUNNY     56  34  43 S14G25    29.69F
$$

LMZ740>746-241900-
SOUTHERN LAKE MICHIGAN

STATION/POSITION TIME  SKY/WX   TEMP WIND        PRES    VSBY
                                AIR  DIR/SP/G
                 (UTC)          (F)  (DEG/KT/KT) (MB)    (MI)
HARRISON CRIB    1740            53  190/ 26/ 27   N/A
BURNHAM HARBOR   1800            55  170/ 16/ 22   N/A
CALUMET HARBOR   1748            54  170/ 12/ 18 1002.8F
BURNS HARBOR     1740            53  180/ 17/ 28 1005.1F
MICHIGAN CITY    1740            51  160/ 17/ 23   N/A
$$

ABBREVIATIONS USED IN REMARKS
   TC - TEMPERATURE IN CELSIUS
  WCI - WIND CHILL INDEX
   HX - HEAT INDEX
  VSB - VISIBILITY
$$



USA.gov is the U.S. government's official web portal to all federal, state and local government web resources and services.